Find Starlink 34760

NORAD ID: 65359 Int'l Des: 2025-190 Owner: SPXS Country: US Constellation: starlink operational
LEOCIRCULAR

リアルタイム位置

3D地球を読み込み中...

Starlink 34760について

説明を読み込み中...

次回通過

Passes for default location (London). Set your location on the main map for personalized predictions.

高度履歴

Loading altitude history...

軌道要素

1 65359U 25190J 26103.73449937 .00011403 00000-0 39644-3 0 9991
2 65359 53.1590 5.1880 0001366 79.2076 280.9078 15.30207432 34651
Epoch: Apr 13, 2026 • Age: 31 hours

現在のステータス

高度 492.4 km
速度 7.62 km/s
衛星直下点 -48.07°S, 89.69°E
打ち上げ日 Aug 28, 2025
運用期間 0.6 years
タイプ internet

技術仕様

分類 Payload
質量 575.00 kg
乾燥質量 530.00 kg
総質量 575.00 kg
長さ 0.30 m
直径 4.10 m
スパン 29.00 m
形状 Box + pan
製造者 SPXS
バスタイプ Starlink V2MO
フェーズステータス In Orbit
所有者/国 SPXS/US

Most Searched